Regional Weather Roundup
Issued by NWS Newport/Morehead, NC

Current Version | Previous Version | Graphics & Text | Print | Product List | Glossary Off
Versions: 1 2 3 4 5 6 7 8 9 10 11 12 13 14 15 16 17 18 19 20 21 22 23 24 25 26 27 28 29 30 31 32 33 34 35 36 37 38 39 40 41 42 43 44 45 46 47 48 49 50

000
ASUS42 KMHX 310510
RWRMHX
WEATHER ROUNDUP FOR EASTERN NORTH CAROLINA
NATIONAL WEATHER SERVICE NEWPORT/MOREHEAD CITY NC
1200 AM EST SAT JAN 31 2015

NOTE: "FAIR" INDICATES FEW OR NO CLOUDS BELOW 12,000 FEET
WITH NO SIGNIFICANT WEATHER AND/OR OBSTRUCTIONS TO VISIBILITY

NCZ015>017-031-032-045>047-102-103-310600-
NORTH COAST

CITY           SKY/WX    TMP DP  RH WIND       PRES   REMARKS
EDENTON        CLEAR     32  12  43 NW9G21    30.25R
ELIZABETH CITY CLEAR     30  12  47 NW14      30.23R WCI  19
KITTY HAWK     CLEAR     32  13  46 NW15G24   30.19R
MANTEO         CLEAR     32  12  43 NW17G30   30.21R

$$

NCZ045>047-081-094-103-104-310600-
CENTRAL COAST

CITY           SKY/WX    TMP DP  RH WIND       PRES   REMARKS
FRISCO         CLEAR     35  16  45 NW17G30   30.20R
SWANQUARTER    NOT AVBL

$$

NCZ095-097-098-100-101-310600-
SOUTHERN COAST

CITY           SKY/WX    TMP DP  RH WIND       PRES   REMARKS
BEAUFORT       CLEAR     35  16  45 N16       30.24R
CEDAR ISLAND   NOT AVBL
JACKSONVILLE   CLEAR     35  12  38 NW18G25   30.28R
PINEY ISLAND     N/A    N/A N/A N/A MISG      30.24R
WILMINGTON     PTCLDY    34  16  47 NW8       30.28R


$$

NCZ011>013-027>030-043-044-078>080-089-090>093-098-310600-
COASTAL PLAIN

CITY           SKY/WX    TMP DP  RH WIND       PRES   REMARKS
AHOSKIE        FAIR      29   9  44 CALM      30.28R
CLINTON        CLEAR     34  13  43 NW8       30.32R
ELIZABETHTOWN  PTCLDY    35   9  33 NW8       30.31R
GOLDSBORO      CLEAR     39  18  41 CALM      30.18R
GREENVILLE     CLEAR     32  10  40 NW5       30.29R
HAVELOCK       CLEAR     35  12  38 NW16      30.26R
KENANSVILLE    CLEAR     32  11  40 NW8       30.31R
KINSTON        CLEAR     32  11  42 NW13      30.30R
NEW BERN       CLEAR     36  10  34 NW13      30.27R
RICHLANDS      CLEAR     34  10  37 NW6       30.29R
ROCKY MOUNT    CLEAR     30  10  43 NW12      30.30R
WASHINGTON     CLEAR     32  10  40 NW7       30.27R
WHITEVILLE     PTCLDY    37  11  34 N5        30.30S

$$

AMZ130-135-150-152-154-156-158-170-250-252-270-ANZ085-086-088-633-658-670-310600-
MARINE OBSERVATIONS

STATION/POSITION TIME  TEMP    WIND        PRES    WAVE   SWELL
                       AIR SEA DIR/SP/G            HT/PER HT/PER
                 (UTC) (F)     (DEG/KT/KT) (MB)    (FT/S) (FT/S)
CHESAPEAKE LIGHT 0400   30     320/ 33/ 38 1021.9
64 E VA BEACH    0500   34 48  320/ 29/ 39 1019.2   11/ 8
DUCK             0500   33 43  310/ 18/ 23 1021.5
2 E DUCK         0500      43                N/A     6/ 6
10 NE DUCK       0500      44                N/A     9/ 7
OREGON INLET     0500   33 42  310/ 19/ 26 1022.1
13E OREGON INLT  0500      44                N/A    10/ 8   2/11
HATTERAS CG      0500   36 44  320/ 28/ 34 1022.9
DIAMOND BUOY     0500   40 65  330/ 27/ 35 1021.3    8/ 5   2/11
17 S OCRACOKE    NOT AVBL
CAPE LOOKOUT     0400   39     330/ 22/ 27 1023.2
BEAUFORT LAB     0500   37 46  350/ 14/ 23 1022.9
27 SE WRIGHTSVLE NOT AVBL
5 SE WRIGHTSVLE  0400   43 52  330/ 17/ 21 1024.4
225 S CAPE HAT   0421   58 71  330/ 23/ 29 1019.1   13/ 9
41 SE CHARLESTON 0500   52 68  360/ 23/ 29 1023.9    6/ 6   2/10

$$


USA.gov is the U.S. government's official web portal to all federal, state and local government web resources and services.